{"data":{"norad_id":68616,"intl_designator":"2026-073Q","name":"STARLINK-37152","alt_names":[],"object_type":"PAYLOAD","status":"ACTIVE","operator":null,"country":"US","launch_date":"2026-04-07","launch_site_code":"AFWTR","launch_vehicle":null,"mission":null,"orbit_class":"UNKNOWN","rcs_meters":null,"size_class":null,"mass_kg":null,"dimensions":null,"purposes":["comms"],"wikipedia_slug":null,"has_3d_model":false,"image_url":null,"decayed_at":null,"tle_current":{"epoch":"2026-09-19T23:48:16.235712Z","epoch_age_seconds":87803,"freshness":"FRESH","line1":"1 68616U 26073Q   26262.99185458  .00008453  00000+0  26381-3 0  9994","line2":"2 68616  97.2861 101.0264 0001644  96.0964 264.0466 15.33452742 25668","mean_motion":15.33452742,"eccentricity":0.0001644,"inclination_deg":97.2861,"raan_deg":101.0264,"arg_perigee_deg":96.0964,"mean_anomaly_deg":264.0466,"bstar":0.00026381,"rev_number":2566,"period_min":93.90573054908,"perigee_km":464.39504259622,"apogee_km":466.64523706379,"semimajor_km":6843.65713983,"source":"CELESTRAK","updated_at":"2026-09-20T09:00:43.945687Z"}}}